This demonstration page uses our WeatherBlox Daily Observations layout. Learn more.

Left ArrowRight Arrow

38.83388, -104.82136

Hourly Observations for June 26, 2019

Temp ( °F °C ) Dew Point ( °F °C ) Humidity (%) Winds ( mph kmh ) Pressure ( in mb ) Visibility ( mi km ) Precip ( " mm )
12:54 am 00:54 Clear 57 13.9 37 2.8 47 47 N 8 13 29.91 1013 10 16 0.00 0.00
1:54 am 01:54 Mostly Clear 56 13.3 37 2.8 49 49 N 10 17 29.90 1013 10 16 0.00 0.00
2:54 am 02:54 Mostly Clear 54 12.2 39 3.9 57 57 NNE 8 13 29.88 1012 10 16 0.00 0.00
3:54 am 03:54 Mostly Clear 54 12.2 41 5 62 62 NNE 3 6 29.89 1012 10 16 0.00 0.00
4:54 am 04:54 Mostly Clear 53 11.7 42 5.6 66 66 N 5 7 29.90 1012 10 16 0.00 0.00
5:54 am 05:54 Mostly Cloudy 51 10.6 42 5.6 71 71 N 9 15 29.91 1013 10 16 0.00 0.00
6:54 am 06:54 Mostly Cloudy 61 16.1 46 7.8 58 58 N 7 11 29.90 1012 10 16 0.00 0.00
7:54 am 07:54 Mostly Cloudy 65 18.3 48 8.9 54 54 NNE 5 7 29.91 1013 10 16 0.00 0.00
8:54 am 08:54 Mostly Cloudy 68 20 51 10.6 55 55 Calm 29.93 1014 10 16 0.00 0.00
9:54 am 09:54 Mostly Cloudy 71 21.7 52 11.1 51 51 S 3 6 29.91 1013 10 16 0.00 0.00
10:08 am 10:08 Mostly Cloudy 72 22 50 10 47 47 Calm 29.72 1006 10 16 0.00 0.00
10:54 am 10:54 Cloudy 76 24.4 39 3.9 26 26 Calm 29.88 1012 10 16 0.00 0.00
11:54 am 11:54 Cloudy 78 25.6 40 4.4 26 26 SSW 5 7 29.89 1012 10 16 0.00 0.00
12:54 pm 12:54 Mostly Cloudy 85 29.4 36 2.2 17 17 SW 12 19 29.86 1011 10 16 0.00 0.00
1:54 pm 13:54 Mostly Cloudy 89 31.7 24 -4.4 9 9 SW 23 37 29.83 1010 10 16 0.00 0.00
2:54 pm 14:54 Mostly Cloudy 84 28.9 24 -4.4 11 11 SW 13 20 29.85 1011 10 16 0.00 0.00
3:54 pm 15:54 Mostly Cloudy 89 31.7 27 -2.8 11 11 SW 21 33 29.82 1010 10 16 0.00 0.00
4:54 pm 16:54 Mostly Cloudy 87 30.6 27 -2.8 11 11 SW 10 17 29.83 1010 10 16 0.00 0.00
5:54 pm 17:54 Mostly Cloudy 86 30 28 -2.2 12 12 SW 15 24 29.83 1010 10 16 0.00 0.00
6:14 pm 18:14 Mostly Cloudy 81 27 30 -1 16 16 NNE 15 24 29.56 1001 10 16 0.00 0.00
6:54 pm 18:54 Mostly Cloudy 79 26.1 33 0.6 19 19 ENE 8 13 29.85 1011 10 16 0.00 0.00
7:54 pm 19:54 Partly Cloudy 79 26.1 33 0.6 19 19 ESE 7 11 29.83 1010 10 16 0.00 0.03
8:54 pm 20:54 Mostly Clear 74 23.3 32 0 21 21 E 9 15 29.85 1011 10 16 0.00 0.00
9:54 pm 21:54 Clear 67 19.4 35 1.7 31 31 NW 7 11 29.89 1012 10 16 0.00 0.00
10:54 pm 22:54 Clear 65 18.3 36 2.2 34 34 N 6 9 29.88 1012 10 16 0.00 0.00
11:54 pm 23:54 Mostly Clear 60 15.6 38 3.3 44 44 N 9 15 29.90 1013 10 16 0.00 0.00

Powered by AerisWeather